CW6238 Weather Reports


time (UTC)temp
F
wind
direction
speed
knots
gust
knots
rain 1hr
in
rain 24hr
in
rain mn
in
humidity
%
barometer
mb
20260507064519 48 68 1.7 5.2 0.00 0.00 0.00 42 1010.2
20260507063518 47 45 1.7 5.2 0.00 0.00 0.00 44 1010.1
20260507062518 47 113 1.7 4.3 0.00 0.00 0.00 50 1010.1
20260507061520 47 45 0.9 2.6 0.00 0.00 0.00 51 1010.0
20260507060539 46 135 1.7 3.5 0.00 0.00 0.00 55 1010.0
20260507055524 45 135 0.9 3.5 0.00 0.00 0.00 61 1010.0
20260507054518 44 113 0.9 2.6 0.00 0.00 0.00 64 1009.9
20260507053519 43 113 0.9 3.5 0.00 0.00 0.00 67 1009.8
20260507052518 43 0.0 2.6 0.00 0.00 0.00 69 1009.7
20260507051521 43 0.0 0.0 0.00 0.00 0.00 73 1009.7
20260507050543 42 0.0 0.0 0.00 0.00 0.00 77 1009.7
20260507045520 41 0.0 2.6 0.00 0.00 0.00 80 1009.7
20260507044518 40 0.0 0.0 0.00 0.00 0.00 85 1009.7
20260507043559 37 0.0 0.0 0.00 0.00 0.00 91 1009.7
20260507042518 34 0.0 0.0 0.00 0.00 0.00 93 1009.7
20260507041520 31 0.0 0.0 0.00 0.00 0.00 93 1009.6
20260507040519 30 0.0 0.0 0.00 0.00 0.00 93 1009.7
20260507035518 30 0.0 0.0 0.00 0.00 0.00 93 1009.6
20260507034640 29 0.0 0.0 0.00 0.00 0.00 93 1009.5
20260507033520 29 0.0 0.0 0.00 0.00 0.00 93 1009.5
20260507032518 28 0.0 0.0 0.00 0.00 0.00 93 1009.4
20260507031518 28 0.0 0.0 0.00 0.00 0.00 92 1009.5
20260507030520 28 0.0 0.0 0.00 0.00 0.00 92 1009.5
20260507025518 28 0.0 0.0 0.00 0.00 0.00 92 1009.4
20260507024520 28 0.0 0.0 0.00 0.00 0.00 93 1009.4
20260507023520 28 0.0 0.0 0.00 0.00 0.00 93 1009.4
20260507022520 27 0.0 0.0 0.00 0.00 0.00 92 1009.4
20260507021520 28 0.0 0.0 0.00 0.00 0.00 92 1009.4
20260507020520 28 0.0 0.0 0.00 0.00 0.00 92 1009.3
20260507015518 28 0.0 0.0 0.00 0.00 0.00 91 1009.4
20260507014520 28 0.0 0.0 0.00 0.00 0.00 92 1009.4
20260507013520 28 0.0 0.0 0.00 0.00 0.00 91 1009.4
20260507012521 29 0.0 0.0 0.00 0.00 0.00 91 1009.3
20260507011520 29 0.0 0.0 0.00 0.00 0.00 91 1009.3
20260507010524 29 0.0 0.0 0.00 0.00 0.00 91 1009.3
20260507005522 29 0.0 0.0 0.00 0.00 0.00 90 1009.3
20260507004540 29 0.0 0.0 0.00 0.00 0.00 89 1009.2
20260507003520 30 0.0 0.0 0.00 0.00 0.00 89 1009.3
20260507002520 30 0.0 0.0 0.00 0.00 0.00 88 1009.2
20260507001522 30 0.0 0.0 0.00 0.00 0.00 88 1009.1
20260507000520 31 0.0 0.0 0.00 0.00 0.00 87 1008.9
20260506235520 31 0.0 0.0 0.00 0.00 0.00 87 1008.9
20260506234520 31 0.0 0.0 0.00 0.00 0.00 85 1008.9
20260506233520 31 0.0 0.0 0.00 0.00 0.00 85 1008.9
20260506232520 32 0.0 0.0 0.00 0.00 0.00 85 1008.8
20260506231621 32 0.0 0.0 0.00 0.00 0.00 85 1008.7
20260506230520 32 0.0 0.0 0.00 0.00 0.00 83 1008.8
20260506225523 33 0.0 0.0 0.00 0.00 0.00 82 1008.8
20260506224520 33 0.0 0.0 0.00 0.00 0.00 81 1008.8
20260506223520 34 0.0 0.0 0.00 0.00 0.00 80 1008.9
20260506222520 34 0.0 0.0 0.00 0.00 0.00 79 1008.8
20260506221520 35 0.0 0.0 0.00 0.00 0.00 78 1008.7
20260506220520 35 0.0 0.0 0.00 0.00 0.00 78 1008.7
20260506215520 35 0.0 0.0 0.00 0.00 0.00 76 1008.7
20260506214520 36 0.0 0.0 0.00 0.00 0.00 75 1008.6
20260506213519 36 0.0 0.0 0.00 0.00 0.00 74 1008.7
20260506212539 36 0.0 0.0 0.00 0.00 0.00 73 1008.6
20260506211520 37 0.0 0.0 0.00 0.00 0.00 72 1008.6
20260506210519 37 0.0 0.9 0.00 0.00 0.00 71 1008.7
20260506205519 38 0.0 0.0 0.00 0.00 0.00 70 1008.6
20260506204541 38 0.0 0.9 0.00 0.00 0.00 69 1008.6
20260506203519 38 0.0 3.5 0.00 0.00 0.00 68 1008.6
20260506202540 39 0.0 0.9 0.00 0.00 0.00 67 1008.6
20260506201600 39 0.0 1.7 0.00 0.00 0.00 67 1008.6
20260506200520 39 0.0 0.0 0.00 0.00 0.00 66 1008.7
20260506195520 40 0.0 0.9 0.00 0.00 0.00 64 1008.7
20260506194524 40 0.0 1.7 0.00 0.00 0.00 63 1008.7
20260506193520 41 0.0 0.9 0.00 0.00 0.00 62 1008.7
20260506192519 41 0.0 1.7 0.00 0.00 0.00 60 1008.7
20260506191600 42 0.0 2.6 0.00 0.00 0.00 58 1008.7
20260506190523 42 0.0 0.0 0.00 0.00 0.00 56 1008.8
20260506185519 43 0.0 1.7 0.00 0.00 0.00 55 1008.8
20260506184539 44 0.0 1.7 0.00 0.00 0.00 54 1008.7
20260506183519 45 113 0.9 2.6 0.00 0.00 0.00 52 1008.6
20260506182524 45 135 0.9 3.5 0.00 0.00 0.00 51 1008.6
20260506181519 46 0.0 2.6 0.00 0.00 0.00 49 1008.5
20260506180519 46 135 0.9 3.5 0.00 0.00 0.00 47 1008.4
20260506175519 47 135 1.7 3.5 0.00 0.00 0.00 44 1008.4
20260506174519 48 135 0.9 3.5 0.00 0.00 0.00 44 1008.4
20260506173520 48 135 1.7 5.2 0.00 0.00 0.00 43 1008.4
20260506172519 49 158 1.7 5.2 0.00 0.00 0.00 41 1008.4
20260506171519 49 90 1.7 6.1 0.00 0.00 0.00 37 1008.3
20260506170559 50 158 1.7 6.1 0.00 0.00 0.00 33 1008.2
20260506165519 50 135 2.6 8.7 0.00 0.00 0.00 31 1008.2
20260506164519 50 113 2.6 7.8 0.00 0.00 0.00 31 1008.1
20260506163519 50 135 2.6 8.7 0.00 0.00 0.00 30 1008.0
20260506162521 51 113 2.6 7.8 0.00 0.00 0.00 28 1008.0
20260506161519 51 135 3.5 8.7 0.00 0.00 0.00 33 1008.0
20260506160520 52 135 2.6 7.0 0.00 0.00 0.00 36 1007.9
20260506155519 52 135 2.6 7.0 0.00 0.00 0.00 36 1007.9
20260506154519 53 135 2.6 7.0 0.00 0.00 0.00 34 1007.8
20260506153519 53 225 0.9 6.1 0.00 0.00 0.00 30 1007.9
20260506152519 53 90 1.7 5.2 0.00 0.00 0.00 32 1007.9
20260506151519 53 203 1.7 4.3 0.00 0.00 0.00 34 1007.9
20260506150519 53 113 3.5 9.6 0.00 0.00 0.00 32 1007.9
20260506145519 53 113 3.5 9.6 0.00 0.00 0.00 33 1008.0
20260506144519 53 158 1.7 7.0 0.00 0.00 0.00 32 1008.0
20260506143519 53 135 1.7 7.0 0.00 0.00 0.00 34 1008.0
20260506142519 53 113 3.5 8.7 0.00 0.00 0.00 33 1007.9
20260506141519 53 135 3.5 9.6 0.00 0.00 0.00 32 1008.0
20260506140519 53 113 4.3 7.8 0.00 0.00 0.00 31 1007.9
20260506135540 54 113 2.6 7.0 0.00 0.00 0.00 30 1007.9
20260506134519 54 158 1.7 7.0 0.00 0.00 0.00 31 1007.9
20260506133519 54 135 3.5 7.0 0.00 0.00 0.00 32 1007.9
20260506132519 54 135 3.5 8.7 0.00 0.00 0.00 32 1007.9
20260506131519 54 135 3.5 8.7 0.00 0.00 0.00 31 1008.0
20260506130559 55 135 2.6 7.8 0.00 0.00 0.00 31 1007.9
20260506125519 55 203 0.9 4.3 0.00 0.00 0.00 25 1007.9
20260506124524 54 45 1.7 5.2 0.00 0.00 0.00 24 1008.0
20260506123519 54 270 2.6 7.0 0.00 0.00 0.00 23 1008.0
20260506122519 54 45 0.9 3.5 0.00 0.00 0.00 24 1008.1
20260506121519 54 45 0.9 4.3 0.00 0.00 0.00 26 1008.2
20260506120519 54 270 2.6 6.1 0.00 0.00 0.00 23 1008.1
20260506115519 54 270 4.3 10.4 0.00 0.00 0.00 24 1008.1
20260506114519 54 270 2.6 7.0 0.00 0.00 0.00 25 1008.1
20260506113539 54 293 2.6 7.8 0.00 0.00 0.00 24 1008.2
20260506112519 54 270 1.7 5.2 0.00 0.00 0.00 26 1008.3
20260506111519 54 270 1.7 6.1 0.00 0.00 0.00 25 1008.3
20260506110519 54 270 3.5 7.8 0.00 0.00 0.00 26 1008.4
20260506105519 53 293 2.6 5.2 0.00 0.00 0.00 26 1008.5
20260506104518 53 270 3.5 6.1 0.00 0.00 0.00 25 1008.5
20260506103519 52 270 1.7 6.1 0.00 0.00 0.00 24 1008.6
20260506102519 53 248 1.7 5.2 0.00 0.00 0.00 26 1008.7
20260506101519 53 270 1.7 3.5 0.00 0.00 0.00 25 1008.9
20260506100519 53 158 0.9 2.6 0.00 0.00 0.00 22 1008.9
20260506095559 52 293 2.6 6.1 0.00 0.00 0.00 23 1009.0
20260506094519 53 68 0.9 3.5 0.00 0.00 0.00 25 1009.1
20260506093519 53 293 0.9 2.6 0.00 0.00 0.00 26 1009.1
20260506092538 51 270 0.9 3.5 0.00 0.00 0.00 26 1009.1
20260506091519 51 270 0.9 5.2 0.00 0.00 0.00 28 1009.1
20260506090518 51 0.0 2.6 0.00 0.00 0.00 30 1009.1
20260506085600 50 270 2.6 4.3 0.00 0.00 0.00 30 1009.1
20260506084518 50 113 0.9 2.6 0.00 0.00 0.00 32 1009.0
20260506083538 50 45 0.9 3.5 0.00 0.00 0.00 34 1009.0
20260506082519 49 270 1.7 3.5 0.00 0.00 0.00 38 1009.0
20260506081518 49 248 1.7 4.3 0.00 0.00 0.00 37 1009.0
20260506080519 49 248 0.9 2.6 0.00 0.00 0.00 34 1008.8
20260506073518 48 270 2.6 5.2 0.00 0.00 0.00 35 1008.7
20260506072519 49 0.0 1.7 0.00 0.00 0.00 41 1008.7
20260506071518 47 293 0.9 2.6 0.00 0.00 0.00 41 1008.7
20260506070519 48 248 0.9 3.5 0.00 0.00 0.00 39 1008.7